Weather History for Trinidad, CO

Change the Weather History Date:

Thursday, August 29, 2013

  Actual Average Record
Temperature  
Mean Temperature 78 °F 70 °F  
Max Temperature 96 °F 85 °F 96 °F (1959)
Min Temperature 59 °F 55 °F 48 °F (1956)
Degree Days  
Heating Degree Days 0 1  
Month to date heating degree days 5 1  
Since 1 June heating degree days 26 43  
Since 1 July heating degree days 5 4  
Cooling Degree Days 13 5  
Month to date cooling degree days 252 197  
Year to date cooling degree days 899 632  
Since 1 June cooling degree days 836 604  
Growing Degree Days 28 (Base 50)    
Moisture  
Dew Point 37 °F    
Average Humidity 32    
Maximum Humidity 55    
Minimum Humidity 9    
Precipitation  
Precipitation 0.00 in 0.06 in 1.44 in (1967)
Month to date precipitation 1.92 2.12  
Year to date precipitation 7.31 10.35  
Sea Level Pressure  
Sea Level Pressure 29.94 in    
Wind  
Wind Speed 8 mph (West)    
Max Wind Speed 17 mph    
Max Gust Speed 26 mph    
Visibility 10 miles    
Events      
T = Trace of Precipitation, MM = Missing Value Source: NWS Daily Summary

Daily Weather History Graph

Daily Weather History Graph

Search for Another Location

Airport:

Trip Planner

Search our weather history database for the weather conditions in past years. The results will help you decide how hot, cold, wet, or windy it might be!

Date:

Astronomy

Aug. 29, 2013 Rise Set
Actual Time 6:25 AM MDT 7:29 PM MDT
Civil Twilight 5:58 AM MDT 7:56 PM MDT
Nautical Twilight 5:26 AM MDT 8:28 PM MDT
Astronomical Twilight 4:53 AM MDT 9:01 PM MDT
Moon 12:22 AM MDT 2:56 PM MDT
Length of Visible Light 13h 57m
Length of Day
13h 04m
Last Quarter, 37% of the Moon is Illuminated
Aug 29
Last Quarter
Sep 5
New
Sep 12
First Quarter
Sep 19
Full
Sep 26
Last Quarter

Hourly Weather History & Observations

Time (MDT) Temp. Dew Point Humidity Pressure Visibility Wind Dir Wind Speed Gust Speed Precip Events Conditions
12:54 AM 73.0 °F 45.0 °F 37% 29.91 in 10.0 mi Variable 5.8 mph - N/A   Clear
1:54 AM 72.0 °F 45.0 °F 38% 29.91 in 10.0 mi West 6.9 mph - N/A   Clear
2:54 AM 71.1 °F 46.0 °F 41% 29.90 in 10.0 mi WSW 16.1 mph - N/A   Clear
4:54 AM 66.9 °F 46.0 °F 47% 29.92 in 10.0 mi WSW 13.8 mph - N/A   Clear
6:54 AM 60.1 °F 45.0 °F 57% 29.99 in 10.0 mi WNW 9.2 mph - N/A   Clear
7:54 AM 66.9 °F 46.0 °F 47% 30.00 in 10.0 mi West 10.4 mph - N/A   Clear
8:54 AM 75.9 °F 46.9 °F 36% 29.98 in 10.0 mi WSW 11.5 mph - N/A   Clear
9:54 AM 82.9 °F 46.0 °F 27% 29.97 in 10.0 mi NW 5.8 mph - N/A   Clear
10:54 AM 84.9 °F 42.1 °F 22% 29.96 in - Calm Calm - N/A   Clear
11:54 AM 89.1 °F 37.9 °F 16% 29.94 in 10.0 mi Calm Calm - N/A   Clear
12:54 PM 91.0 °F 36.0 °F 14% 29.92 in 10.0 mi North - - N/A   Clear
1:54 PM 93.9 °F 34.0 °F 12% 29.91 in 10.0 mi ENE 5.8 mph - N/A   Clear
2:54 PM 93.9 °F 32.0 °F 11% 29.89 in 10.0 mi South 5.8 mph - N/A   Clear
3:54 PM 95.0 °F 30.0 °F 10% 29.88 in 10.0 mi Variable 4.6 mph - N/A   Clear
4:54 PM 93.9 °F 27.0 °F 9% 29.88 in 10.0 mi Calm Calm - N/A   Clear
5:54 PM 93.9 °F 27.0 °F 9% 29.90 in 10.0 mi NE 6.9 mph - N/A   Clear
6:54 PM 89.1 °F 30.0 °F 12% 29.92 in 10.0 mi NE 6.9 mph - N/A   Clear
7:54 PM 81.0 °F 30.0 °F 16% 29.95 in 10.0 mi NE 6.9 mph - N/A   Clear
8:54 PM 73.0 °F 32.0 °F 22% 29.96 in 10.0 mi Calm Calm - N/A   Clear
9:54 PM 69.1 °F 30.9 °F 24% 29.97 in 10.0 mi WSW 9.2 mph - N/A   Clear
10:54 PM 69.1 °F 32.0 °F 25% 29.97 in 10.0 mi WSW 11.5 mph - N/A   Clear
11:54 PM 64.9 °F 37.0 °F 36% 29.96 in 10.0 mi WNW 10.4 mph - N/A   Clear